Location: Famechon
(49.7599°N, 2.0615°E)
Time: 20:32:42
(UTC+00:00)

Cosmos 1741 Rocket - Pass Details

Date: 25 March 2025
Orbit: 758 x 778 km, 74.0° (Epoch: 28 April)

Event Time Altitude Azimuth Distance (km) Brightness Sun altitude
Rises 02:18:59 0° 332° (NNW) 3,234 7.5 -30.1°
Reaches altitude 10° 02:21:25 10° 327° (NNW) 2,306 6.6 -29.9°
Enters shadow 02:22:41 17° 322° (NW) 1,850 6.0 -29.7°
